Regional Weather Roundup
Issued by NWS

Home | Current Version | Previous Version | Text Only | Print | Product List | Glossary On
Versions: 1 2 3 4 5 6 7 8 9 10 11 12 13 14 15 16 17 18 19 20 21 22 23 24 25 26 27 28 29 30 31 32 33 34 35 36 37 38 39 40 41 42 43 44 45 46 47 48 49 50
000
ASUS43 KMKX 300728
RWRWI

WISCONSIN REGIONAL WEATHER ROUNDUP
NATIONAL WEATHER SERVICE MILWAUKEE/SULLIVAN WI
200 AM CDT SAT MAY 30 2015

NOTE: "FAIR" INDICATES FEW OR NO CLOUDS BELOW 12,000 FEET WITH NO
SIGNIFICANT WEATHER AND/OR OBSTRUCTIONS TO VISIBILITY.

WIZ001-002-006>008-014>016-023>028-300800-
NORTHWEST WISCONSIN

CITY           SKY/WX    TMP DP  RH WIND       PRES   REMARKS
SUPERIOR ARPT  MOCLDY    46  39  76 N6        30.12S
ASHLAND        CLOUDY    51  44  77 NW7       30.10R
HAYWARD        CLOUDY    50  45  83 N9        30.09R
SIREN          CLOUDY    49  43  79 N8        30.10S
CUMBERLAND     CLOUDY    48  45  87 N10G16    30.07S
RICE LAKE      CLOUDY    51  46  83 N12       30.07F
CHETEK         CLOUDY    51  49  93 N10G17    30.05F
LADYSMITH      CLOUDY    52  49  90 N16       30.05S
EAU CLAIRE     CLOUDY    54  51  90 N17       30.01R
MENOMONIE      CLOUDY    53  50  91 N14       30.04R
NEW RICHMOND   CLOUDY    51  47  86 N14G20    30.07S
OSCEOLA        CLOUDY    50  47  90 N9        30.12R
$$

WIZ003>005-009-010-017-018-300800-
NORTH CENTRAL WISCONSIN

CITY           SKY/WX    TMP DP  RH WIND       PRES   REMARKS
MANITOWISH WTR DRIZZLE   48  48 100 N8        30.04R
ARBOR VITAE    DRIZZLE   52  50  94 N12       30.02S
WOODRUFF       DRIZZLE   52  50  94 N12       30.02S
RHINELANDER    LGT RAIN  54  53  97 VRB6      30.00R
EAGLE RIVER    CLOUDY    53  52  98 N8        30.01R
LAND O LAKES   CLOUDY    53  51  94 N7        30.03R
PHILLIPS       CLOUDY    49  47  94 N8        30.03S
TOMAHAWK       DRIZZLE   54  52  94 NW10      30.01R
MEDFORD        DRIZZLE   55  54  97 N9        30.00R
MERRILL        RAIN      56  56  99 N6        29.99R
$$

WIZ029-030-035-036-043>047-300800-
CENTRAL WISCONSIN

CITY           SKY/WX    TMP DP  RH WIND       PRES   REMARKS
WAUSAU         LGT RAIN  58  56  93 N9        29.95R
MOSINEE        LGT RAIN  57  57 100 N12G17    29.97R
MARSHFIELD     CLOUDY    59  55  87 N9        29.96R
STEVENS POINT  DRIZZLE   60  59  98 N7        29.94S
WAUPACA        LGT RAIN  64  64  98 NE6       29.92R
WAUTOMA        LGT RAIN  64  64 100 CALM      29.91S
WISC RAPIDS    LGT RAIN  62  59  90 NE8       29.94R FOG
CAMP DOUGLAS   LGT RAIN  64  64 100 W1        29.90S FOG
$$

WIZ011>013-019>022-031-037>040-048>050-300800-
NORTHEAST WISCONSIN

CITY           SKY/WX    TMP DP  RH WIND       PRES   REMARKS
ANTIGO         LGT RAIN  55  55  97 N10       29.97R
SHAWANO        DRIZZLE   63  62  95 N7        29.93R
OCONTO         CLOUDY    59  59 100 E5        29.91R
STURGEON BAY   CLOUDY    57  52  82 N14       29.95R
GREEN BAY      LGT RAIN  65  62  90 N6        29.91R
MANITOWOC      LGT RAIN  63  63 100 CALM      29.92R
APPLETON       LGT RAIN  63  63 100 NE6       29.92R
CLINTONVILLE   LGT RAIN  63  61  94 N6        29.92R
OSHKOSH        RAIN      64  63  96 S3        29.90S FOG
$$

WIZ032>034-041-042-053>061-300800-
SOUTHWEST WISCONSIN

CITY           SKY/WX    TMP DP  RH WIND       PRES   REMARKS
LA CROSSE      RAIN      62  60  93 N15       29.93R FOG
SPARTA         LGT RAIN  64  63  97 N10       29.92S
VIROQUA        CLOUDY    64  64 100 SE5       29.92S
BOSCOBEL       CLOUDY    67  65  93 CALM      29.90S
PRAIRIE DU CHI CLOUDY    66  63  89 CALM      29.90S
PLATTEVILLE    CLOUDY    66  65  96 SW13      29.93S
$$

WIZ056-057-062-063-064-067-068-300800-
SOUTH CENTRAL WISCONSIN

CITY           SKY/WX    TMP DP  RH WIND       PRES   REMARKS
REEDSBURG      RAIN      64  64 100 CALM      29.90F
BARABOO/DELLS  LGT RAIN  64  62  94 SE3       29.91S
LONE ROCK      CLOUDY    67  64  90 NE3       29.91S
MINERAL POINT  LGT RAIN  68  64  88 SW6       29.92F
MADISON        CLOUDY    66  64  93 SE5       29.91S
MIDDLETON      CLOUDY    67  66  96 CALM      29.92S
WATERTOWN      LGT RAIN N/A N/A N/A SW3       29.91F
MONROE         CLOUDY    68  63  83 SW12      29.92F
JANESVILLE     CLOUDY    68  66  94 SW6       29.92F
$$

WIZ051-052-058>065-066-070>072-300800-
SOUTHEAST WISCONSIN

CITY           SKY/WX    TMP DP  RH WIND       PRES   REMARKS
MILWAUKEE      CLOUDY    70  63  78 W3        29.92R
WAUKESHA       CLOUDY    63  61  94 CALM      29.94R
MILWAUKEE/TIMM CLOUDY    64  61  88 W3        29.92S
RACINE         CLOUDY    70  63  78 SW7       29.94R
BURLINGTON     CLOUDY    64  62  92 S5        29.93S
KENOSHA        CLOUDY    70  64  81 W16       29.93R
FOND DU LAC    HVY RAIN  64  63  96 S5        29.91F FOG
SHEBOYGAN      LGT RAIN  64  63  96 CALM      29.91S
WEST BEND      LGT RAIN  63  61  94 CALM      29.91F
JUNEAU         RAIN      63  62  96 CALM      29.92F
$$

LSZ147-162-300800-
LAKE SUPERIOR

STATION/POSITION TIME  TEMP    WIND        PRES    WAVE
                       AIR SEA DIR/SP/G            HT/PER
                 (UTC) (F)     (DEG/KT/KT) (MB)    (FT/S)
W MID LAKE BUOY  0650   42 37  310/  8/  8   N/A     1
DEVILS ISLAND    0700   46     320/ 10/ 11   N/A
PORT WING        0640   45     260/  2/  3   N/A
SAXON HARBOR     0600   51     330/  2/  5   N/A
$$

LMZ867-665-643>646-300800-
LAKE MICHIGAN

STATION/POSITION TIME  TEMP    WIND        PRES    WAVE
                       AIR SEA DIR/SP/G            HT/PER
                 (UTC) (F)     (DEG/KT/KT) (MB)    (FT/S)
CHAMBERS ISLAND  0600   55     350/ 11/ 14   N/A
N MID LAKE BUOY  0650   43 37  310/  8/ 10   N/A     1
NORTHPORT PIER   0600   54     330/ 13/ 17   N/A
SISTER BAY       0618   54      10/ 17/ 22   N/A
ALGOMA LAKESHORE 0538          340/  6/  8   N/A
KEWAUNEE LAKESHO 0700   61      30/  6/ 11   N/A
SHEBOYGAN LAKESH 0700   64      CALM  /  1   N/A
PORT WASHINGTON  0540   67     320/  4/ 11   N/A
ATWATER BUOY     0700   57      CALM  /  2   N/A
MILWAUKEE LAKESH 0700   68     300/  1/  2   N/A
S MID LAKE BUOY  0650   46 38  200/ 10/ 10   N/A     0
KENOSHA   LAKESH 0700   72     260/ 12/ 17   N/A
$$

TC  - TEMPERATURE IN CELSIUS
VSB - VISIBILITY IN STATUTE MILES
WCI - WIND CHILL INDEX
HX  - HEAT INDEX



USA.gov is the U.S. government's official web portal to all federal, state and local government web resources and services.